Date Time,Air Temp,Sky Temp,Clarity,Light Level,Rain Sensor,Readings
2013-11-24 00:00:13,17.3,-4.3,21.6,0.1,2.3,112
2013-11-24 00:05:13,17.3,-4.7,22.0,0.0,2.3,112
2013-11-24 00:10:13,17.4,-4.7,22.1,0.0,2.3,111
2013-11-24 00:15:13,17.4,-4.0,21.5,0.1,2.3,112
2013-11-24 00:20:13,17.4,-3.9,21.3,0.1,2.3,112
2013-11-24 00:25:13,17.4,-5.8,23.3,0.1,2.3,111
2013-11-24 00:30:13,17.3,-4.7,22.0,0.1,2.3,112
2013-11-24 00:35:13,15.2,-2.3,17.5,0.1,2.3,112
2013-11-24 00:40:13,13.7,-1.4,15.0,0.1,2.4,111
2013-11-24 00:45:13,13.2,-0.7,13.9,0.1,2.4,112
2013-11-24 00:50:13,13.1,-0.5,13.6,0.1,2.4,112
2013-11-24 00:55:13,13.1,-0.4,13.4,0.1,2.3,112
2013-11-24 01:00:13,13.0,-0.6,13.6,0.1,2.3,112
2013-11-24 01:05:34,13.0,-0.6,13.6,0.1,2.3,112
2013-11-24 01:10:34,13.0,-0.6,13.6,0.1,2.3,112
2013-11-24 01:15:34,13.0,-0.5,13.5,0.1,2.2,112
2013-11-24 01:20:34,12.9,-0.7,13.6,0.1,2.2,111
2013-11-24 01:25:34,12.9,-1.1,13.9,0.1,2.2,112
2013-11-24 01:30:34,12.8,-4.6,17.4,0.1,2.2,111
2013-11-24 01:35:34,13.1,-3.8,16.9,0.1,2.2,112
2013-11-24 01:40:34,13.4,-6.7,20.1,0.1,2.3,112
2013-11-24 01:45:34,16.1,-6.0,22.1,0.1,2.3,111
2013-11-24 01:50:34,16.9,-6.0,22.9,0.1,2.3,112
2013-11-24 01:55:34,17.1,-6.1,23.1,0.1,2.3,111
2013-11-24 02:00:34,17.1,-5.8,22.9,0.1,2.3,112
2013-11-24 02:05:34,15.6,-2.4,17.9,0.1,2.3,111
2013-11-24 02:10:34,13.6,-2.6,16.2,0.1,2.4,112
2013-11-24 02:15:34,13.1,-2.3,15.4,0.1,2.3,111
2013-11-24 02:20:34,12.9,-2.6,15.6,0.1,2.2,112
2013-11-24 02:25:34,12.9,-1.6,14.5,0.1,2.1,111
2013-11-24 02:30:34,12.9,-1.9,14.8,0.1,2.1,112
2013-11-24 02:35:34,12.9,-2.2,15.1,0.1,2.1,112
2013-11-24 02:40:34,13.0,-1.7,14.7,0.1,2.1,111
2013-11-24 02:45:34,13.0,-1.0,14.0,0.1,2.2,111
2013-11-24 02:50:34,13.0,-0.8,13.9,0.1,2.2,112
2013-11-24 02:55:34,13.1,-0.7,13.8,0.1,2.2,112
2013-11-24 03:00:34,13.2,-1.4,14.6,0.1,2.2,111
2013-11-24 03:05:34,13.2,-1.0,14.2,0.1,2.2,112
2013-11-24 03:10:34,13.2,-2.0,15.2,0.1,2.2,111
2013-11-24 03:15:34,13.1,-1.0,14.1,0.1,2.2,112
2013-11-24 03:20:34,13.1,-0.9,14.1,0.1,2.2,111
2013-11-24 03:25:34,13.1,-1.4,14.5,0.1,2.2,111
2013-11-24 03:30:34,13.1,-1.0,14.1,0.1,2.2,112
2013-11-24 03:35:34,13.1,-0.9,14.1,0.1,2.2,112
2013-11-24 03:40:34,13.1,-1.6,14.7,0.1,2.2,112
2013-11-24 03:45:34,13.1,-1.9,15.0,0.1,2.2,111
2013-11-24 03:50:34,13.1,-1.7,14.8,0.1,2.2,112
2013-11-24 03:55:34,13.4,-2.1,15.5,0.1,2.2,111
2013-11-24 04:00:34,13.1,-1.9,15.0,0.1,2.2,112
2013-11-24 04:05:34,13.1,-1.2,14.3,0.1,2.2,111
2013-11-24 04:10:34,13.1,-1.0,14.1,0.1,2.2,112
2013-11-24 04:15:34,13.1,-0.6,13.6,0.1,2.2,112
2013-11-24 04:20:34,13.0,-0.8,13.8,0.2,2.2,112
2013-11-24 04:25:34,13.0,-1.1,14.1,0.2,2.1,111
2013-11-24 04:30:34,13.1,-1.2,14.3,0.2,2.2,112
2013-11-24 04:35:34,13.1,-1.0,14.1,0.2,2.2,112
2013-11-24 04:40:34,13.1,-1.0,14.0,0.2,2.2,111
2013-11-24 04:45:34,13.1,-0.9,14.0,0.2,2.2,112
2013-11-24 04:50:34,13.0,-0.5,13.5,0.1,2.2,112
2013-11-24 04:55:34,13.0,-1.6,14.6,0.1,2.2,112
2013-11-24 05:00:34,14.2,-5.2,19.4,0.2,2.3,111
2013-11-24 05:05:34,13.6,-1.0,14.6,0.2,2.3,112
2013-11-24 05:10:34,13.2,-0.1,13.3,0.1,2.2,112
2013-11-24 05:15:34,13.0,-1.1,14.1,0.1,2.2,112
2013-11-24 05:20:34,14.6,-11.7,26.3,0.2,2.3,111
2013-11-24 05:25:34,16.5,-15.8,32.2,0.3,2.3,112
2013-11-24 05:30:34,16.8,-9.5,26.3,0.2,2.3,111
2013-11-24 05:35:34,14.5,-0.3,14.7,0.1,2.4,112
2013-11-24 05:40:34,13.3,-0.1,13.4,0.1,2.3,112
2013-11-24 05:45:34,13.0,-0.2,13.1,0.1,2.2,112
2013-11-24 05:50:34,12.9,0.2,12.7,0.1,2.2,111
2013-11-24 05:55:34,12.9,0.3,12.6,0.1,2.2,112
2013-11-24 06:00:34,12.9,0.1,12.8,0.1,2.2,111
2013-11-24 06:05:34,13.0,-0.0,13.0,0.1,2.2,112
2013-11-24 06:10:34,13.0,-0.0,13.0,0.1,2.2,112
2013-11-24 06:15:34,13.0,-0.3,13.2,0.1,2.2,112
2013-11-24 06:20:34,13.0,-0.2,13.2,0.2,2.2,111
2013-11-24 06:25:34,13.0,0.1,12.9,0.2,2.2,112
2013-11-24 06:30:34,13.0,-0.1,13.1,0.2,2.2,112
2013-11-24 06:35:34,13.0,-0.4,13.4,0.3,2.2,112
2013-11-24 06:40:34,13.0,-0.4,13.4,0.6,2.1,112
2013-11-24 06:45:34,12.9,-0.3,13.3,0.9,2.1,112
2013-11-24 06:50:34,12.9,0.0,12.9,1.5,2.0,112
2013-11-24 06:55:34,12.9,0.4,12.6,2.6,1.9,111
2013-11-24 07:00:34,12.9,0.6,12.3,4.3,1.9,112
2013-11-24 07:05:34,12.9,0.8,12.2,7.6,1.9,111
2013-11-24 07:10:34,13.0,0.4,12.6,13.9,1.9,111
2013-11-24 07:15:34,13.0,-0.0,13.0,19.6,2.0,112
2013-11-24 07:20:34,13.1,-0.9,14.0,24.1,2.0,112
2013-11-24 07:25:34,13.1,-0.3,13.4,26.4,2.1,112
2013-11-24 07:30:34,13.2,0.4,12.9,27.5,2.2,111
2013-11-24 07:35:34,13.3,-0.5,13.8,29.5,2.2,112
2013-11-24 07:40:34,13.4,0.0,13.4,30.1,2.2,112
2013-11-24 07:45:34,13.4,-0.0,13.5,30.5,2.2,112
2013-11-24 07:50:34,13.5,0.2,13.3,30.8,2.2,111
2013-11-24 07:55:34,13.5,0.1,13.4,31.1,2.2,112
2013-11-24 08:00:34,13.6,-0.3,13.9,31.4,2.3,112
2013-11-24 08:05:34,13.6,-0.3,13.9,31.6,2.3,112
2013-11-24 08:10:34,13.6,0.2,13.4,31.7,2.3,111
2013-11-24 08:15:34,13.6,0.3,13.4,31.8,2.3,111
2013-11-24 08:20:34,13.7,0.3,13.4,31.9,2.3,112
2013-11-24 08:25:34,13.7,0.0,13.7,32.0,2.3,112
2013-11-24 08:30:34,13.7,-0.7,14.4,32.1,2.4,112
2013-11-24 08:35:34,13.8,0.5,13.3,32.1,2.4,110
2013-11-24 08:40:34,13.8,-0.3,14.1,32.1,2.4,112
2013-11-24 08:45:34,13.8,-0.0,13.9,32.2,2.4,112
2013-11-24 08:50:34,13.9,-2.4,16.3,32.3,2.4,111
2013-11-24 08:55:34,13.9,-2.3,16.2,32.3,2.4,112
2013-11-24 09:00:34,14.0,-1.3,15.3,32.3,2.4,112
2013-11-24 09:05:34,14.1,-0.6,14.6,32.3,2.4,111
2013-11-24 09:10:34,14.1,-0.3,14.4,32.3,2.4,112
2013-11-24 09:15:34,14.5,-5.5,20.0,32.3,2.4,111
2013-11-24 09:20:34,17.4,-8.3,25.7,32.3,2.3,112
2013-11-24 09:25:34,18.5,-3.6,22.0,32.4,2.3,111
2013-11-24 09:30:34,18.9,-4.5,23.4,32.4,2.3,112
2013-11-24 09:35:34,17.5,-0.6,18.1,32.4,2.3,112
2013-11-24 09:40:34,15.5,-0.4,15.9,32.4,2.3,112
2013-11-24 09:45:34,14.9,0.0,14.9,32.4,2.3,111
2013-11-24 09:50:34,14.7,-0.8,15.5,32.4,2.3,112
2013-11-24 09:55:34,14.7,-1.5,16.1,32.4,2.3,112
2013-11-24 10:00:34,14.6,-2.0,16.6,32.5,2.3,111
2013-11-24 10:05:34,14.7,-0.6,15.3,32.5,2.3,112
2013-11-24 10:10:34,14.8,0.8,14.0,32.5,2.3,23
2013-11-24 10:15:34,14.8,0.8,14.0,32.5,2.3,0
2013-11-24 10:20:34,14.8,0.8,14.0,32.5,2.3,0
2013-11-24 10:25:34,14.8,0.8,14.0,32.5,2.3,0
2013-11-24 10:30:34,14.8,0.8,14.0,32.5,2.3,0
2013-11-24 10:35:34,14.8,0.8,14.0,32.5,2.3,0
2013-11-24 10:40:34,14.8,0.8,14.0,32.5,2.3,0
2013-11-24 10:45:34,14.8,0.8,14.0,32.5,2.3,0
2013-11-24 10:50:34,14.8,0.8,14.0,32.5,2.3,0
2013-11-24 10:55:34,14.8,0.8,14.0,32.5,2.3,0
2013-11-24 11:00:34,14.8,0.8,14.0,32.5,2.3,0
2013-11-24 11:05:34,14.8,0.8,14.0,32.5,2.3,0
2013-11-24 11:10:34,14.8,0.8,14.0,32.5,2.3,0
2013-11-24 11:15:34,14.8,0.8,14.0,32.5,2.3,0
2013-11-24 11:20:34,14.8,0.8,14.0,32.5,2.3,0
2013-11-24 11:25:34,14.8,0.8,14.0,32.5,2.3,0
2013-11-24 11:30:34,14.8,0.8,14.0,32.5,2.3,0
2013-11-24 11:35:34,14.8,0.8,14.0,32.5,2.3,0
2013-11-24 11:40:34,14.8,0.8,14.0,32.5,2.3,0
2013-11-24 11:45:34,14.8,0.8,14.0,32.5,2.3,0
2013-11-24 11:50:34,14.8,0.8,14.0,32.5,2.3,0
2013-11-24 11:55:34,14.8,0.8,14.0,32.5,2.3,0
2013-11-24 12:00:34,14.8,0.8,14.0,32.5,2.3,0
2013-11-24 12:05:34,14.8,0.8,14.0,32.5,2.3,0
2013-11-24 12:10:34,14.8,0.8,14.0,32.5,2.3,0
2013-11-24 12:15:34,14.8,0.8,14.0,32.5,2.3,0
2013-11-24 12:20:34,14.8,0.8,14.0,32.5,2.3,0
2013-11-24 12:25:34,14.8,0.8,14.0,32.5,2.3,0
2013-11-24 12:30:34,14.8,0.8,14.0,32.5,2.3,0
2013-11-24 12:35:34,14.8,0.8,14.0,32.5,2.3,0
2013-11-24 12:40:34,14.8,0.8,14.0,32.5,2.3,0
2013-11-24 12:45:34,14.8,0.8,14.0,32.5,2.3,0
2013-11-24 12:50:34,14.8,0.8,14.0,32.5,2.3,0
2013-11-24 12:55:34,14.8,0.8,14.0,32.5,2.3,0
2013-11-24 13:00:34,14.8,0.8,14.0,32.5,2.3,0
2013-11-24 13:05:34,14.8,0.8,14.0,32.5,2.3,0
2013-11-24 13:10:34,14.8,0.8,14.0,32.5,2.3,0
2013-11-24 13:15:34,14.8,0.8,14.0,32.5,2.3,0
2013-11-24 13:20:34,14.8,0.8,14.0,32.5,2.3,0
2013-11-24 13:25:34,14.8,0.8,14.0,32.5,2.3,0
2013-11-24 13:30:34,14.8,0.8,14.0,32.5,2.3,0
2013-11-24 13:35:34,14.8,0.8,14.0,32.5,2.3,0
2013-11-24 13:40:34,14.8,0.8,14.0,32.5,2.3,0
2013-11-24 13:45:34,14.8,0.8,14.0,32.5,2.3,0
2013-11-24 13:50:34,14.8,0.8,14.0,32.5,2.3,0
2013-11-24 13:55:34,14.8,0.8,14.0,32.5,2.3,0
2013-11-24 14:00:34,14.8,0.8,14.0,32.5,2.3,0
2013-11-24 14:05:34,14.8,0.8,14.0,32.5,2.3,0
2013-11-24 14:10:34,14.8,0.8,14.0,32.5,2.3,0
2013-11-24 14:15:34,14.8,0.8,14.0,32.5,2.3,0
2013-11-24 14:20:34,14.8,0.8,14.0,32.5,2.3,0
2013-11-24 14:25:34,14.8,0.8,14.0,32.5,2.3,0
2013-11-24 14:30:34,14.8,0.8,14.0,32.5,2.3,0
2013-11-24 14:35:34,14.8,0.8,14.0,32.5,2.3,0
2013-11-24 14:40:34,14.8,0.8,14.0,32.5,2.3,0
2013-11-24 14:45:34,14.8,0.8,14.0,32.5,2.3,0
2013-11-24 14:50:34,14.8,0.8,14.0,32.5,2.3,0
2013-11-24 14:55:34,14.8,0.8,14.0,32.5,2.3,0
2013-11-24 15:00:34,14.8,0.8,14.0,32.5,2.3,0
2013-11-24 15:05:34,14.8,0.8,14.0,32.5,2.3,0
2013-11-24 15:10:34,14.8,0.8,14.0,32.5,2.3,0
2013-11-24 15:15:34,14.8,0.8,14.0,32.5,2.3,0
2013-11-24 15:20:34,14.8,0.8,14.0,32.5,2.3,0
2013-11-24 15:25:34,14.8,0.8,14.0,32.5,2.3,0
2013-11-24 15:30:34,14.8,0.8,14.0,32.5,2.3,0
2013-11-24 15:35:34,14.8,0.8,14.0,32.5,2.3,0
2013-11-24 15:40:34,14.8,0.8,14.0,32.5,2.3,0
2013-11-24 15:45:34,14.8,0.8,14.0,32.5,2.3,0
2013-11-24 15:50:35,14.8,0.8,14.0,32.5,2.3,0
2013-11-24 15:55:35,14.8,0.8,14.0,32.5,2.3,0
2013-11-24 16:00:35,14.8,0.8,14.0,32.5,2.3,0
2013-11-24 16:05:35,14.8,0.8,14.0,32.5,2.3,0
2013-11-24 16:10:35,14.8,0.8,14.0,32.5,2.3,0
2013-11-24 16:15:35,14.8,0.8,14.0,32.5,2.3,0
2013-11-24 16:20:35,14.8,0.8,14.0,32.5,2.3,0
2013-11-24 16:25:35,14.8,0.8,14.0,32.5,2.3,0
2013-11-24 16:30:35,14.8,0.8,14.0,32.5,2.3,0
2013-11-24 16:35:35,14.8,0.8,14.0,32.5,2.3,0
2013-11-24 16:40:35,14.8,0.8,14.0,32.5,2.3,0
2013-11-24 16:45:35,14.8,0.8,14.0,32.5,2.3,0
2013-11-24 16:50:35,14.8,0.8,14.0,32.5,2.3,0
2013-11-24 16:55:35,14.8,0.8,14.0,32.5,2.3,0
2013-11-24 17:00:35,14.8,0.8,14.0,32.5,2.3,0
2013-11-24 17:05:35,14.8,0.8,14.0,32.5,2.3,0
2013-11-24 17:10:35,14.8,0.8,14.0,32.5,2.3,0
2013-11-24 17:15:35,14.8,0.8,14.0,32.5,2.3,0
2013-11-24 17:20:35,14.8,0.8,14.0,32.5,2.3,0
2013-11-24 17:25:35,14.8,0.8,14.0,32.5,2.3,0
2013-11-24 17:30:35,14.8,0.8,14.0,32.5,2.3,0
2013-11-24 17:35:35,14.8,0.8,14.0,32.5,2.3,0
2013-11-24 17:40:35,14.8,0.8,14.0,32.5,2.3,0
2013-11-24 17:45:35,14.8,0.8,14.0,32.5,2.3,0
2013-11-24 17:50:35,14.8,0.8,14.0,32.5,2.3,0
2013-11-24 17:55:35,14.8,0.8,14.0,32.5,2.3,0
2013-11-24 18:00:35,14.8,0.8,14.0,32.5,2.3,0
2013-11-24 18:05:35,14.8,0.8,14.0,32.5,2.3,0
2013-11-24 18:10:35,14.8,0.8,14.0,32.5,2.3,0
2013-11-24 18:15:35,14.8,0.8,14.0,32.5,2.3,0
2013-11-24 18:20:35,14.8,0.8,14.0,32.5,2.3,0
2013-11-24 18:25:35,14.8,0.8,14.0,32.5,2.3,0
2013-11-24 18:30:35,14.8,0.8,14.0,32.5,2.3,0
2013-11-24 18:35:35,14.8,0.8,14.0,32.5,2.3,0
2013-11-24 18:40:35,14.8,0.8,14.0,32.5,2.3,0
2013-11-24 18:45:35,14.8,0.8,14.0,32.5,2.3,0
2013-11-24 18:50:35,14.8,0.8,14.0,32.5,2.3,0
2013-11-24 18:55:35,14.8,0.8,14.0,32.5,2.3,0
2013-11-24 19:00:35,14.8,0.8,14.0,32.5,2.3,0
2013-11-24 19:05:35,14.8,0.8,14.0,32.5,2.3,0
2013-11-24 19:10:35,14.8,0.8,14.0,32.5,2.3,0
2013-11-24 19:15:35,14.8,0.8,14.0,32.5,2.3,0
2013-11-24 19:20:35,14.8,0.8,14.0,32.5,2.3,0
2013-11-24 19:25:35,14.8,0.8,14.0,32.5,2.3,0
2013-11-24 19:30:35,14.8,0.8,14.0,32.5,2.3,0
2013-11-24 19:35:35,14.8,0.8,14.0,32.5,2.3,0
2013-11-24 19:40:35,14.8,0.8,14.0,32.5,2.3,0
2013-11-24 19:45:35,14.8,0.8,14.0,32.5,2.3,0
2013-11-24 19:50:35,14.8,0.8,14.0,32.5,2.3,0
2013-11-24 19:55:35,14.8,0.8,14.0,32.5,2.3,0
2013-11-24 20:00:35,14.8,0.8,14.0,32.5,2.3,0
2013-11-24 20:05:35,14.8,0.8,14.0,32.5,2.3,0
2013-11-24 20:10:35,14.8,0.8,14.0,32.5,2.3,0
2013-11-24 20:15:35,14.8,0.8,14.0,32.5,2.3,0
2013-11-24 20:20:35,14.8,0.8,14.0,32.5,2.3,0
2013-11-24 20:25:35,14.8,0.8,14.0,32.5,2.3,0
2013-11-24 20:30:35,14.8,0.8,14.0,32.5,2.3,0
2013-11-24 20:35:35,14.8,0.8,14.0,32.5,2.3,0
2013-11-24 20:40:35,14.8,0.8,14.0,32.5,2.3,0
2013-11-24 20:45:35,14.8,0.8,14.0,32.5,2.3,0
2013-11-24 20:50:35,14.8,0.8,14.0,32.5,2.3,0
2013-11-24 20:55:35,14.8,0.8,14.0,32.5,2.3,0
2013-11-24 21:00:35,14.8,0.8,14.0,32.5,2.3,0
2013-11-24 21:05:35,14.8,0.8,14.0,32.5,2.3,0
2013-11-24 21:10:35,14.8,0.8,14.0,32.5,2.3,0
2013-11-24 21:15:35,14.8,0.8,14.0,32.5,2.3,0
2013-11-24 21:20:35,14.8,0.8,14.0,32.5,2.3,0
2013-11-24 21:25:35,14.8,0.8,14.0,32.5,2.3,0
2013-11-24 21:30:35,14.8,0.8,14.0,32.5,2.3,0
2013-11-24 21:35:35,14.8,0.8,14.0,32.5,2.3,0
2013-11-24 21:40:35,14.8,0.8,14.0,32.5,2.3,0
2013-11-24 21:45:35,14.8,0.8,14.0,32.5,2.3,0
2013-11-24 21:50:35,14.8,0.8,14.0,32.5,2.3,0
2013-11-24 21:55:35,14.8,0.8,14.0,32.5,2.3,0
2013-11-24 22:00:35,14.8,0.8,14.0,32.5,2.3,0
2013-11-24 22:05:35,14.8,0.8,14.0,32.5,2.3,0
2013-11-24 22:10:35,14.8,0.8,14.0,32.5,2.3,0
2013-11-24 22:15:35,14.8,0.8,14.0,32.5,2.3,0
2013-11-24 22:20:35,14.8,0.8,14.0,32.5,2.3,0
2013-11-24 22:25:35,14.8,0.8,14.0,32.5,2.3,0
2013-11-24 22:30:35,14.8,0.8,14.0,32.5,2.3,0
2013-11-24 22:35:35,14.8,0.8,14.0,32.5,2.3,0
2013-11-24 22:40:35,14.8,0.8,14.0,32.5,2.3,0
2013-11-24 22:45:35,14.8,0.8,14.0,32.5,2.3,0
2013-11-24 22:50:35,14.8,0.8,14.0,32.5,2.3,0
2013-11-24 22:55:35,14.8,0.8,14.0,32.5,2.3,0
2013-11-24 23:00:35,14.8,0.8,14.0,32.5,2.3,0
2013-11-24 23:05:35,14.8,0.8,14.0,32.5,2.3,0
2013-11-24 23:10:35,14.8,0.8,14.0,32.5,2.3,0
2013-11-24 23:15:35,14.8,0.8,14.0,32.5,2.3,0
2013-11-24 23:20:35,14.8,0.8,14.0,32.5,2.3,0
2013-11-24 23:25:35,14.8,0.8,14.0,32.5,2.3,0
2013-11-24 23:30:35,14.8,0.8,14.0,32.5,2.3,0
2013-11-24 23:35:35,14.8,0.8,14.0,32.5,2.3,0
2013-11-24 23:40:35,14.8,0.8,14.0,32.5,2.3,0
2013-11-24 23:45:35,14.8,0.8,14.0,32.5,2.3,0
2013-11-24 23:50:35,14.8,0.8,14.0,32.5,2.3,0
2013-11-24 23:55:35,14.8,0.8,14.0,32.5,2.3,0
